Regional Weather Roundup
Issued by NWS

Home | Current Version | Previous Version | Text Only | Print | Product List | Glossary On
Versions: 1 2 3 4 5 6 7 8 9 10 11 12 13 14 15 16 17 18 19 20 21 22 23 24 25 26 27 28 29 30 31 32 33 34 35 36 37 38 39 40 41 42 43 44 45 46 47 48 49 50
000
ASCA44 KEWX 220820
RWRMX

LATIN AMERICA AND CARIBBEAN REGIONAL WEATHER ROUNDUP
NATIONAL WEATHER SERVICE AUSTIN/SAN ANTONIO TX
200 AM CST SAT NOV 22 2014

NOTE: "FAIR" INDICATED FEW OR NO CLOUDS BELOW 12,000 FEET WITH NO
SIGNIFICANT WEATHER AND/OR OBSTRUCTIONS TO VISIBILITY.

BAJA CALIFORNIA

CITY           SKY/WX    TMP DP  RH WIND       PRES   REMARKS
TIJUANA        CLEAR     55  50  82 E6        30.07

NORTHWESTERN MEXICO

CITY           SKY/WX    TMP DP  RH WIND       PRES   REMARKS
DURANGO        CLEAR     45  34  65 S5        30.17F WCI  42

NORTHEASTERN MEXICO

CITY           SKY/WX    TMP DP  RH WIND       PRES   REMARKS
MONTERREY      CLOUDY    66  63  88 E12       29.94S
REYNOSA        CLOUDY    68  64  88 E12       29.99
CD. VICTORIA   PTCLDY    68  66  94 S15       29.99

WESTERN MEXICO

CITY           SKY/WX    TMP DP  RH WIND       PRES   REMARKS
AGUASCALIENTES CLEAR     52  45  76 SE5       30.27
DEL BAJIO      MOCLDY    57  54  88 N6        30.30
GUADALAJARA    MOCLDY    57  54  88 CALM      30.20
MAZATLAN       CLEAR     61  54  77 N8        29.94R
P. VALLARTA    CLEAR     72  70  94 NE5       29.92F
ZACATECAS      CLEAR     48  39  71 S8        30.25  WCI  45

CENTRAL MEXICO

CITY           SKY/WX    TMP DP  RH WIND       PRES   REMARKS
MEXICO CITY    CLOUDY    59  50  72 NE6       30.32F
MORELIA        MOCLDY    54  50  87 SW3       30.25
QUERETARO      MOCLDY    52  50  93 CALM      30.30S
S. LUIS POTOSI MOCLDY    55  52  88 CALM      30.23
TOLUCA         CLOUDY    50  43  76 CALM      30.40F

SOUTHERN MEXICO

CITY           SKY/WX    TMP DP  RH WIND       PRES   REMARKS
ACAPULCO       CLEAR     79  75  89 N3        29.93F
VERACRUZ       MOCLDY    70  66  88 W3        30.00F

YUCATAN PENINSULA

CITY           SKY/WX    TMP DP  RH WIND       PRES   REMARKS
CANCUN         PTCLDY    75  73  94 NW5       30.02F
COZUMEL        PTCLDY    72  72 100 CALM      30.02F
MERIDA         MOCLDY    73  72  94 CALM      30.02F
TAPACHULA      MOCLDY    77  75  94 CALM      29.92F

CENTRAL AMERICA

CITY           SKY/WX    TMP DP  RH WIND       PRES   REMARKS

CARIBBEAN

CITY           SKY/WX    TMP DP  RH WIND       PRES   REMARKS
ARUBA          PTCLDY    79  75  89 E5        29.86S
KINGSTON       PTCLDY    79  73  83 NW5       29.94S
NASSAU         CLOUDY    77  70  78 E20       30.13F
SAN JUAN       LGT RAIN  75  75 100 E6        29.97F
SANTO DOMINGO  PTCLDY    73  72  94 N6        29.94F

$$




USA.gov is the U.S. government's official web portal to all federal, state and local government web resources and services.